Temperature
19 20 20 22 21 20 20 19 19 20 20 21 21 21 22 22 22 22 23 23 23 22 22 22 22 21 21 21 20 20 20 19 19 18 18 18 18 17 17 17 17 16 16 16
20 20 21 22 22 21 21 20 20 21 21 20 21 22 22 22 22 22 22 23 22 22 22 22 21 21 21 21 20 20 19 19 19 18 18 18 18 17 17 17 16 16 16 16
18 19 21 21 21 21 21 21 20 21 21 20 20 20 21 22 22 22 23 23 23 22 22 22 21 21 21 20 20 19 19 19 18 18 18 17 17 17 16 16 16 16 15 15
16 19 20 20 20 21 21 21 20 21 20 20 20 22 22 23 23 23 23 23 23 22 22 21 21 21 21 20 19 19 19 18 18 18 17 17 17 16 16 16 16 15 15 15
14 17 18 20 21 20 20 21 20 19 19 20 20 21 21 22 23 24 24 23 23 22 22 21 21 20 20 19 19 19 18 18 18 18 17 17 16 16 16 16 15 15 15 14
14 17 18 19 20 21 20 20 19 19 18 18 19 19 20 22 22 23 23 23 22 22 21 21 21 20 20 19 19 19 18 18 18 17 17 16 16 16 15 15 15 15 14 14
15 16 17 18 19 20 20 20 20 19 19 19 19 21 22 22 22 23 23 22 22 21 21 21 20 20 19 19 19 18 18 17 17 17 16 16 16 15 15 15 15 15 14 14
13 16 17 18 18 18 18 19 19 19 19 19 20 21 21 22 22 22 22 22 21 21 20 20 20 20 19 19 18 18 17 17 17 16 16 16 16 15 15 15 15 14 14 13
14 15 16 17 17 18 19 18 19 19 20 20 20 20 20 21 21 21 21 21 21 20 20 19 19 19 19 19 18 18 17 17 16 16 16 15 15 15 15 15 14 14 14 13
13 14 15 17 17 18 19 19 19 19 20 20 20 20 20 20 20 20 20 20 20 20 19 19 18 18 18 18 18 18 17 17 16 16 15 15 15 15 15 14 14 14 13 13
13 14 15 17 17 18 18 18 19 19 19 20 20 20 20 20 20 20 19 20 20 19 19 18 18 18 18 18 17 17 17 16 16 15 15 15 14 14 14 14 14 13 13 13
13 14 14 15 17 17 18 18 18 19 19 19 19 19 19 19 19 19 19 19 19 18 18 18 18 17 17 17 17 17 16 16 15 15 14 14 14 13 13 13 13 12 12 12
15 15 15 16 16 17 17 17 18 18 18 18 18 19 19 18 18 18 18 18 18 18 18 18 17 17 17 17 17 16 16 16 15 14 14 14 13 13 13 13 12 12 12 11
15 15 15 16 16 17 17 17 17 18 18 18 18 18 18 18 18 17 17 17 17 17 17 17 17 17 17 16 16 16 15 15 15 14 14 13 13 13 13 13 12 12 12 11
15 16 16 16 16 16 16 16 16 17 17 17 17 17 17 17 17 17 16 16 16 16 16 16 16 16 16 15 15 15 15 15 14 14 13 13 13 13 13 12 12 12 11 11
15 16 16 16 15 16 16 16 16 16 16 16 16 17 17 17 16 16 16 16 16 16 16 15 15 15 15 15 14 14 14 14 14 13 13 13 13 13 12 12 12 11 11 11
14 15 15 15 15 15 15 15 15 15 15 16 16 16 16 16 16 15 15 15 16 15 15 15 15 14 14 14 14 14 14 13 13 13 13 12 12 12 12 12 11 11 11 11
15 15 15 15 15 15 15 15 15 15 15 16 16 15 16 15 15 15 15 15 15 15 14 14 14 14 14 14 14 13 13 13 13 13 13 12 12 12 12 11 11 11 11 10
15 15 15 15 15 15 15 15 15 15 15 15 15 15 15 15 15 15 15 14 14 14 14 14 14 14 13 13 13 13 13 13 12 12 12 12 12 12 11 11 11 10 10 10
15 15 15 15 15 15 15 15 15 15 15 15 15 15 15 15 14 14 14 14 14 14 14 13 13 13 13 13 13 13 12 12 12 12 12 12 11 11 11 11 10 10 10 10
14 14 14 14 14 14 14 14 14 14 15 15 15 15 14 14 14 14 14 14 13 13 13 13 13 13 13 13 12 12 12 12 12 12 11 11 11 11 11 10 10 10 10 10
14 14 14 14 14 14 14 14 14 14 14 14 14 14 14 14 14 14 14 13 13 13 13 13 13 13 13 12 12 12 12 12 11 11 11 11 11 10 10 10 10 10 10 10
13 13 13 13 13 13 13 13 14 14 14 14 14 14 14 13 13 13 13 13 13 13 13 13 13 12 12 12 12 12 11 11 11 11 11 10 10 10 10 10 10 10 9 9
13 13 13 13 13 13 13 13 13 13 13 13 13 13 13 13 13 13 13 13 12 12 12 12 12 12 12 12 12 11 11 11 11 11 10 10 10 10 10 10 9 9 9 9
12 12 12 12 12 12 12 12 13 13 13 13 13 13 13 13 13 13 12 12 12 12 12 12 12 12 12 12 12 11 11 11 10 10 10 10 10 10 10 9 9 9 9 9
12 12 12 12 12 12 12 12 12 12 12 12 12 12 12 12 12 12 12 12 12 12 12 12 12 12 11 11 11 11 11 10 10 10 10 10 10 9 9 9 9 9 9 9
11 11 11 11 11 11 11 12 12 12 12 12 11 12 12 12 12 12 12 11 11 11 11 11 11 11 11 11 11 10 10 10 10 10 10 9 9 9 9 9 9 9 9 9
Wind_Speed
5 5 4 5 6 6 6 9 9 9 9 11 9 8 7 6 6 7 7 7 7 7 7 7 7 7 7 7 8 8 8 8 6 6 5 6 6 6 6 6 5 5 6 5
2 3 4 4 6 8 7 6 7 5 9 8 5 3 5 7 9 9 9 8 8 8 9 9 9 9 8 8 8 9 9 8 7 7 7 6 6 6 6 6 5 6 5 5
3 3 0 5 7 7 5 6 8 9 10 4 4 8 10 10 10 11 10 10 10 10 10 10 10 10 10 9 9 9 9 8 8 8 7 6 7 7 6 6 6 6 5 6
3 2 6 9 4 5 6 6 7 6 6 7 8 6 5 7 9 9 9 9 9 9 8 8 7 8 9 9 9 9 9 8 8 8 8 7 7 7 6 5 5 5 6 6
4 4 6 7 3 4 4 4 3 5 4 2 1 2 1 3 6 8 8 8 8 9 9 9 10 10 10 9 9 9 9 8 8 9 9 8 7 6 5 6 6 5 5 5
5 5 7 8 5 2 3 3 3 3 4 3 4 3 6 5 5 5 6 6 7 8 9 10 10 11 11 10 9 8 8 8 8 8 9 8 7 6 5 6 6 5 6 5
4 4 7 7 5 1 4 7 4 4 5 6 6 6 5 4 4 5 6 7 8 9 9 10 11 11 11 10 9 8 8 8 8 7 8 8 7 6 7 7 6 6 6 5
5 4 6 4 1 3 6 4 3 4 5 5 4 2 2 4 5 7 7 8 9 9 8 9 11 12 11 10 8 9 10 9 9 8 8 8 9 7 6 7 7 5 6 5
7 7 5 2 4 4 3 3 4 4 4 4 3 3 3 4 6 7 8 8 8 9 10 8 8 10 11 10 10 11 11 10 9 9 8 8 8 8 6 5 5 4 5 4
2 5 5 5 4 4 4 4 5 4 4 3 4 4 4 4 5 6 6 8 8 11 10 8 7 8 9 10 11 12 11 10 9 9 8 7 6 6 6 5 5 5 5 4
3 5 5 4 4 5 4 3 2 2 1 3 5 5 5 5 6 7 6 6 8 10 10 9 8 8 9 11 11 12 11 10 9 8 8 7 5 4 5 3 4 5 5 4
5 5 3 6 6 5 4 4 2 1 1 1 4 5 4 4 4 6 7 7 8 9 10 9 9 9 9 9 11 12 10 9 8 7 7 7 7 6 8 5 5 5 5 5
6 5 5 6 6 5 4 4 3 1 2 2 2 3 4 4 4 6 6 8 8 8 9 9 9 9 8 9 10 10 10 9 7 7 7 7 7 7 5 5 7 6 6 6
7 4 4 5 5 5 3 3 2 1 0 2 3 3 4 4 5 6 6 7 8 8 8 8 9 8 7 8 9 9 9 9 8 7 7 7 6 6 6 6 5 3 4 5
6 6 6 5 4 3 2 0 1 0 1 2 3 4 5 6 5 5 6 8 9 9 8 8 8 7 7 7 8 9 8 7 7 7 6 6 6 6 6 6 5 4 3 3
5 3 3 3 4 3 1 1 2 2 2 3 3 4 5 6 7 7 8 9 9 9 8 8 8 7 8 8 8 7 6 10 9 7 7 6 6 7 6 6 5 5 5 4
4 4 3 3 4 3 3 3 3 3 2 3 4 5 6 7 8 8 7 7 8 8 7 7 7 7 7 8 8 6 7 8 10 8 7 6 6 6 6 6 6 5 4 4
5 5 5 4 4 3 2 2 2 2 2 3 5 7 7 8 9 9 8 7 7 7 5 5 6 7 7 7 7 6 6 7 7 7 7 6 6 6 6 6 6 6 4 4
4 3 3 3 3 4 3 3 2 2 2 4 6 7 7 7 8 8 9 8 8 7 5 5 7 8 7 8 8 6 7 7 6 6 6 7 6 5 6 6 6 5 5 5
2 2 2 1 1 2 2 2 2 2 3 5 6 6 6 6 8 8 8 6 4 4 6 7 7 7 7 8 8 6 7 7 7 6 6 6 6 6 5 6 5 5 5 5
1 1 1 2 2 2 2 2 3 2 3 6 7 8 7 6 7 8 7 5 3 4 6 8 6 6 6 7 8 7 7 7 7 6 6 6 6 6 6 6 6 5 5 5
2 2 3 3 4 3 2 3 4 4 4 6 7 7 8 7 7 6 5 4 4 6 6 5 5 7 8 8 6 6 6 7 6 6 6 6 6 6 6 6 6 5 5 5
3 3 3 4 3 3 4 4 5 4 5 6 6 7 7 6 5 6 4 3 5 7 6 5 7 10 10 7 6 7 7 7 6 6 5 5 6 5 5 5 5 5 5 5
3 3 3 3 4 5 4 3 3 4 4 4 4 5 6 6 4 3 4 6 7 8 6 7 10 11 9 6 6 6 6 6 6 5 5 5 5 5 5 5 4 4 5 5
3 3 3 4 4 2 2 2 4 4 4 4 4 3 3 3 4 4 5 6 8 8 6 7 10 10 7 6 6 6 6 6 6 5 5 5 5 5 5 5 5 5 4 4
2 2 2 2 2 2 2 2 2 2 3 4 3 3 3 3 4 5 5 6 7 7 6 5 6 7 6 6 6 6 5 6 6 5 5 5 5 5 5 5 5 5 4 4
2 1 2 2 2 1 1 2 2 2 2 3 3 2 3 4 4 5 6 5 5 5 5 5 5 5 6 6 5 5 5 5 5 5 5 4 4 4 5 6 5 4 5 5
Wind_Direction
212 220 192 197 197 187 185 185 188 224 227 244 236 222 212 192 175 171 174 171 167 166 164 158 155 155 154 150 147 146 143 142 145 136 126 117 109 103 99 95 93 91 88 79
224 242 221 229 213 202 208 194 211 228 249 248 238 201 195 188 182 185 186 181 176 170 168 167 165 161 155 152 149 145 144 144 139 130 126 122 115 108 101 94 89 88 88 87
221 280 55 249 218 199 207 200 183 211 236 232 210 202 202 196 191 195 192 185 181 179 177 174 169 163 159 153 143 141 141 141 139 135 129 125 121 112 106 99 94 90 85 86
160 126 218 242 244 199 199 222 213 224 235 213 214 211 206 192 189 191 185 183 181 174 167 161 154 149 143 140 141 141 141 142 141 138 132 124 117 114 109 104 100 94 85 82
141 180 259 289 254 179 185 238 221 216 235 240 141 77 301 212 187 190 186 181 178 170 160 152 148 144 139 140 142 144 148 150 149 144 136 129 125 121 115 108 97 92 91 88
141 163 217 243 265 237 143 249 247 192 198 175 127 166 243 216 178 175 168 164 161 154 148 148 147 143 142 145 149 155 154 149 144 140 136 134 130 124 113 110 105 97 86 79
161 195 248 256 284 99 155 237 256 213 209 186 191 219 227 179 169 160 156 153 151 151 155 153 146 144 146 150 160 154 140 134 130 130 131 129 122 120 120 118 112 104 94 78
154 178 242 282 61 169 228 267 249 228 217 209 223 235 172 161 159 151 146 146 147 151 153 149 151 150 152 160 153 138 135 134 131 128 128 128 123 119 118 122 120 115 103 87
189 210 240 271 242 265 252 262 255 233 238 204 191 193 168 163 158 156 154 152 149 148 145 144 154 156 156 154 143 138 136 135 131 125 121 130 130 129 124 123 127 127 118 111
247 268 280 287 285 295 273 265 269 255 242 191 184 173 161 160 157 152 151 151 147 144 145 148 155 151 148 145 145 141 140 139 137 134 129 121 121 128 132 143 145 142 139 136
266 286 311 314 309 305 315 322 321 313 251 180 160 168 169 169 160 153 148 146 146 148 150 150 148 142 142 145 145 142 141 141 139 137 133 126 116 114 132 139 162 158 160 157
234 238 237 275 292 305 317 313 312 340 19 103 155 160 157 161 156 148 145 141 140 141 142 145 145 143 146 149 148 145 145 147 147 144 140 138 129 100 69 87 105 121 137 146
242 256 248 261 278 281 289 294 300 283 193 167 145 146 143 142 139 137 138 142 144 145 143 142 144 146 150 151 150 150 153 154 152 151 151 151 147 141 124 79 78 93 114 129
243 243 266 264 267 282 281 294 323 21 105 157 139 126 124 121 131 137 144 148 138 135 135 139 141 142 143 148 151 151 150 153 154 156 156 157 156 150 147 145 134 96 76 106
258 234 230 249 271 278 265 216 104 121 147 134 135 138 138 135 133 134 134 132 130 131 135 137 137 141 143 149 153 153 152 153 150 148 149 150 147 142 143 144 142 133 118 104
260 258 230 229 248 253 219 186 186 215 187 162 152 143 137 129 126 122 124 132 135 139 141 142 146 148 147 149 150 150 151 150 148 147 148 149 148 147 149 150 152 153 154 152
236 249 230 225 234 228 228 221 207 213 203 173 164 150 135 128 124 124 127 129 129 129 134 143 147 143 144 146 150 152 148 149 148 146 154 158 155 156 157 158 161 163 165 160
235 239 232 218 210 201 225 223 188 208 223 197 165 150 145 146 144 141 135 124 117 116 123 138 141 140 142 145 149 149 147 150 156 156 154 153 153 154 155 157 162 162 152 144
237 230 227 224 191 177 185 198 201 205 215 170 153 154 153 150 144 137 133 133 136 138 141 139 139 142 143 146 143 140 142 144 146 143 141 143 146 149 153 157 160 161 156 152
257 241 217 213 145 164 183 191 171 178 180 156 147 144 146 145 141 137 134 138 152 154 148 142 140 140 139 140 137 138 140 142 142 141 141 145 148 151 152 155 158 160 162 165
110 131 143 128 114 114 138 147 142 148 154 154 154 154 151 145 140 138 136 140 144 137 137 134 136 137 137 137 135 139 141 141 142 145 147 148 148 151 155 157 161 167 170 173
69 92 94 99 93 78 74 102 112 117 131 137 139 140 138 139 138 132 131 145 145 138 138 140 141 139 138 133 134 136 138 140 142 144 148 150 153 159 164 166 170 176 178 178
56 69 73 81 86 82 72 78 90 104 123 138 143 146 145 144 144 143 144 143 140 140 141 143 141 137 134 133 135 138 142 144 146 149 154 158 162 165 170 173 176 177 177 178
68 64 59 66 77 82 78 72 84 96 107 117 128 138 140 135 128 133 136 141 142 137 140 142 139 139 137 137 138 142 146 148 149 151 153 157 161 164 167 171 175 178 178 177
86 80 72 73 78 88 110 109 97 94 100 101 102 111 128 140 148 145 138 141 141 137 138 140 139 141 142 139 142 148 152 154 154 154 157 160 163 164 166 170 177 179 181 184
102 106 104 109 117 118 116 113 115 118 114 110 107 110 117 122 126 129 133 136 135 135 137 138 143 144 145 145 149 154 155 155 156 161 165 166 166 167 170 176 181 183 184 187
62 71 83 74 64 84 113 118 125 128 130 133 129 128 130 129 128 133 137 138 138 137 135 137 144 150 151 152 152 152 152 155 160 164 166 168 170 173 177 179 182 183 184 182
Height
1500 1496 1497 1496 1499 1502 1505 1510 1517 1510 1506 1495 1489 1488 1488 1490 1492 1494 1497 1500 1502 1505 1508 1511 1514 1516 1519 1521 1524 1527 1529 1531 1533 1535 1536 1537 1538 1538 1539 1540 1541 1541 1542 1542
1499 1495 1494 1494 1493 1496 1496 1499 1502 1500 1498 1485 1485 1486 1487 1488 1490 1492 1494 1497 1500 1503 1505 1508 1511 1514 1517 1520 1523 1525 1528 1530 1532 1534 1536 1537 1538 1538 1539 1540 1541 1542 1542 1542
1508 1499 1495 1501 1491 1491 1491 1490 1493 1497 1490 1484 1484 1483 1484 1485 1487 1489 1491 1494 1497 1500 1503 1506 1509 1512 1515 1518 1521 1524 1526 1529 1531 1534 1535 1537 1538 1539 1540 1541 1542 1542 1543 1543
1511 1505 1512 1495 1481 1482 1484 1484 1484 1482 1481 1480 1479 1479 1481 1482 1484 1487 1490 1493 1495 1498 1501 1504 1508 1511 1515 1518 1520 1523 1525 1528 1530 1532 1535 1537 1538 1539 1540 1542 1542 1543 1544 1544
1514 1513 1504 1488 1480 1480 1484 1484 1480 1480 1479 1479 1478 1479 1480 1481 1483 1485 1487 1490 1493 1496 1500 1503 1507 1510 1513 1517 1520 1522 1525 1527 1529 1532 1534 1536 1538 1540 1541 1542 1543 1544 1544 1545
1510 1509 1509 1490 1476 1474 1479 1486 1477 1476 1477 1477 1478 1484 1479 1478 1480 1482 1485 1488 1491 1494 1498 1502 1505 1508 1512 1515 1518 1521 1524 1527 1529 1532 1534 1535 1538 1540 1541 1543 1544 1544 1545 1546
1505 1504 1496 1480 1475 1474 1489 1486 1474 1473 1473 1474 1474 1474 1473 1475 1477 1480 1482 1485 1489 1492 1496 1499 1503 1506 1510 1513 1517 1520 1524 1526 1529 1531 1533 1535 1537 1539 1540 1542 1543 1545 1545 1546
1503 1503 1497 1476 1475 1479 1478 1472 1471 1470 1470 1471 1471 1471 1471 1472 1475 1477 1480 1483 1486 1490 1494 1498 1501 1505 1508 1511 1516 1519 1522 1525 1528 1530 1532 1534 1536 1538 1540 1542 1543 1544 1544 1545
1490 1489 1478 1475 1475 1474 1473 1471 1469 1468 1468 1469 1469 1469 1470 1471 1473 1476 1479 1481 1485 1488 1491 1495 1500 1504 1507 1511 1514 1517 1520 1524 1526 1529 1531 1533 1535 1537 1539 1541 1543 1544 1544 1545
1483 1478 1474 1473 1472 1471 1471 1470 1468 1467 1466 1467 1467 1467 1468 1470 1472 1474 1477 1480 1483 1486 1490 1494 1498 1502 1506 1510 1513 1516 1519 1522 1525 1527 1530 1531 1534 1536 1538 1540 1542 1543 1544 1545
1480 1476 1473 1470 1470 1470 1468 1467 1466 1465 1465 1465 1466 1467 1467 1468 1470 1473 1476 1479 1481 1485 1488 1492 1497 1501 1505 1508 1511 1514 1517 1520 1523 1526 1528 1530 1533 1535 1536 1539 1541 1543 1544 1545
1478 1474 1474 1471 1470 1469 1468 1466 1465 1464 1464 1465 1466 1466 1467 1468 1470 1472 1475 1478 1481 1484 1488 1492 1495 1499 1503 1506 1510 1512 1515 1518 1521 1524 1527 1529 1532 1534 1536 1538 1541 1543 1544 1545
1471 1471 1470 1469 1468 1468 1467 1466 1465 1465 1464 1464 1465 1466 1466 1467 1469 1471 1474 1477 1481 1484 1488 1491 1494 1498 1502 1505 1509 1511 1514 1517 1520 1523 1525 1528 1530 1532 1535 1537 1540 1542 1543 1545
1468 1468 1467 1466 1466 1466 1465 1465 1464 1464 1464 1464 1465 1466 1466 1467 1469 1470 1473 1477 1480 1484 1487 1490 1494 1497 1500 1504 1507 1510 1513 1516 1518 1521 1524 1526 1529 1530 1533 1536 1538 1540 1542 1544
1465 1464 1464 1463 1463 1463 1463 1463 1463 1463 1463 1464 1464 1465 1466 1467 1468 1471 1473 1477 1480 1483 1487 1490 1493 1497 1500 1503 1506 1509 1511 1514 1517 1520 1523 1525 1528 1530 1532 1535 1537 1539 1541 1543
1461 1460 1460 1460 1460 1460 1460 1461 1461 1461 1462 1462 1463 1464 1466 1467 1470 1472 1475 1477 1480 1483 1486 1489 1492 1496 1499 1502 1505 1508 1510 1513 1516 1518 1521 1524 1526 1528 1531 1534 1536 1538 1540 1542
1458 1457 1457 1456 1456 1457 1458 1458 1459 1460 1461 1461 1463 1464 1466 1468 1471 1474 1476 1478 1481 1483 1486 1489 1492 1495 1498 1501 1504 1506 1509 1512 1514 1517 1519 1522 1524 1527 1530 1532 1534 1536 1538 1540
1455 1455 1454 1452 1452 1454 1455 1456 1458 1459 1460 1461 1463 1464 1466 1468 1470 1473 1476 1479 1481 1484 1487 1489 1492 1494 1497 1500 1503 1505 1508 1510 1513 1515 1518 1521 1524 1526 1529 1531 1533 1535 1538 1539
1452 1452 1451 1451 1451 1453 1454 1456 1457 1458 1459 1460 1462 1463 1465 1468 1470 1473 1476 1479 1482 1484 1487 1489 1492 1494 1496 1499 1502 1504 1507 1509 1512 1514 1517 1520 1523 1525 1528 1530 1532 1534 1536 1538
1449 1450 1449 1449 1450 1451 1452 1454 1456 1457 1458 1460 1461 1463 1465 1468 1470 1473 1476 1479 1482 1484 1487 1489 1491 1493 1495 1498 1501 1504 1506 1509 1511 1514 1516 1519 1521 1524 1526 1529 1531 1533 1535 1537
1448 1448 1448 1448 1449 1451 1452 1453 1454 1456 1457 1459 1461 1463 1465 1468 1471 1473 1476 1479 1482 1485 1487 1489 1491 1493 1495 1497 1500 1503 1506 1508 1511 1513 1516 1518 1521 1523 1525 1528 1530 1532 1533 1535
1447 1447 1447 1448 1449 1450 1452 1453 1454 1455 1456 1458 1461 1463 1465 1468 1471 1473 1475 1478 1482 1484 1486 1488 1490 1493 1495 1497 1500 1503 1506 1508 1510 1513 1516 1518 1520 1522 1525 1527 1529 1530 1532 1534
1447 1448 1448 1449 1450 1451 1452 1452 1454 1455 1457 1459 1461 1463 1465 1468 1470 1472 1475 1478 1481 1484 1486 1487 1490 1492 1495 1497 1499 1502 1505 1508 1510 1513 1515 1517 1520 1522 1524 1526 1528 1529 1531 1533
1449 1449 1449 1449 1450 1451 1452 1454 1455 1457 1458 1460 1461 1463 1465 1468 1470 1473 1476 1478 1481 1483 1485 1487 1489 1492 1494 1497 1499 1502 1505 1507 1510 1512 1514 1517 1519 1521 1523 1525 1527 1529 1530 1532
1450 1450 1450 1451 1451 1452 1453 1454 1456 1457 1458 1459 1461 1464 1466 1468 1470 1473 1475 1478 1480 1482 1484 1487 1489 1492 1494 1497 1499 1502 1504 1506 1509 1511 1513 1516 1518 1520 1522 1524 1526 1527 1529 1530
1450 1451 1451 1452 1453 1453 1454 1455 1456 1457 1458 1459 1462 1464 1466 1469 1471 1473 1475 1478 1480 1482 1484 1486 1489 1492 1494 1496 1499 1501 1504 1506 1508 1510 1513 1515 1517 1519 1521 1523 1524 1526 1527 1528
1450 1450 1451 1452 1453 1454 1454 1455 1456 1456 1458 1460 1462 1464 1466 1469 1471 1473 1475 1477 1480 1482 1484 1487 1489 1491 1494 1496 1499 1501 1503 1505 1508 1510 1512 1514 1516 1518 1520 1521 1523 1524 1525 1526